Regional Weather Roundup
Issued by NWS Raleigh/Durham, NC

Home | Current Version | Previous Version | Text Only | Print | Product List | Glossary On
Versions: 1 2 3 4 5 6 7 8 9 10 11 12 13 14 15 16 17 18 19 20 21 22 23 24 25 26 27 28 29 30 31 32 33 34 35 36 37 38 39 40 41 42 43 44 45 46 47 48 49 50
000
ASUS42 KRAH 260610
RWRRAH
NORTH CAROLINA WEATHER ROUNDUP
NATIONAL WEATHER SERVICE RALEIGH NC
200 AM EDT TUE SEP 26 2017

NOTE: "FAIR" INDICATES FEW OR NO CLOUDS BELOW 12,000 FEET WITH NO
SIGNIFICANT WEATHER AND/OR OBSTRUCTIONS TO VISIBILITY.

NCZ001-053-055-056-065-067-260700-
WESTERN NORTH CAROLINA

CITY           SKY/WX    TMP DP  RH WIND       PRES   REMARKS
ASHEVILLE      PTCLDY    60  58  92 CALM      30.06F
JEFFERSON      PTCLDY    64  59  86 N3        30.10F
MORGANTON      PTCLDY    67  65  93 N3        30.04S
HICKORY        PTCLDY    67  65  93 CALM      29.99F
RUTHERFORDTON  PTCLDY    69  62  79 N5        30.01S
MOUNT AIRY     PTCLDY    68  63  83 CALM      30.03S
BOONE          CLOUDY    58  57  96 CALM      30.11S
$$

NCZ021-022-025-041-071-084-088-260700-
CENTRAL NORTH CAROLINA

CITY           SKY/WX    TMP DP  RH WIND       PRES   REMARKS
CHARLOTTE      MOCLDY    68  65  90 N7        29.97S
GREENSBORO     PTCLDY    69  65  86 N6        29.97S
WINSTON-SALEM  PTCLDY    69  65  86 N6        29.99S
RALEIGH-DURHAM MOCLDY    70  67  90 NE6       29.93F
FORT BRAGG     CLOUDY    71  66  84 N3        29.88F
FAYETTEVILLE   CLOUDY    72  69  90 N10       29.88F
BURLINGTON     PTCLDY    69  64  84 N3        29.96S
LAURINBURG     PTCLDY    73  68  84 NE7       29.88F
$$

NCZ011-015-027-028-043-044-047-080-103-260700-
NORTHEASTERN NORTH CAROLINA

CITY           SKY/WX    TMP DP  RH WIND       PRES   REMARKS
ROCKY MT-WILSO CLOUDY    71  68  90 N12       29.90F
GREENVILLE     CLOUDY    72  68  88 N9        29.91R
WASHINGTON     CLOUDY    71  69  92 N10       29.87F
ELIZABETH CITY CLOUDY    72  72 100 NE15      29.87F FOG
MANTEO         CLOUDY    73  72  98 NE17G24   29.83S
CAPE HATTERAS  CLOUDY    77  76  96 NE13G23   29.75F
$$

NCZ078-087-090-091-093-098-101-260700-
SOUTHEASTERN NORTH CAROLINA

CITY           SKY/WX    TMP DP  RH WIND       PRES   REMARKS
LUMBERTON      NOT AVBL
GOLDSBORO      CLOUDY    71  71 100 N8        29.86F
KINSTON        CLOUDY    72  68  88 N10       29.88F
KENANSVILLE    CLOUDY    72  68  88 N12       29.86F
NEW BERN       CLOUDY    73  71  93 N12       29.83F
CHERRY POINT   CLOUDY    74  73  97 N18       29.81F
BEAUFORT       CLOUDY    74  74 100 N18G26    29.77F
JACKSONVILLE   CLOUDY    73  71  93 N14       29.81F
WILMINGTON     CLOUDY    74  70  87 N13G21    29.82S
$$




USA.gov is the U.S. government's official web portal to all federal, state and local government web resources and services.